Benson, United Kingdom

12:28 AM GMT on February 24, 2017 (GMT +0000)
Benson Air Base

Weather History for EGUB - December, 2013

Change the Weather History Date:

Saturday, December 21, 2013

  Actual Average Record
Temperature  
Mean Temperature 50 °F -  
Max Temperature 53 °F 44 °F 55 °F (2011)
Min Temperature 46 °F 35 °F 19 °F (1998)
Degree Days  
Heating Degree Days 16    
Moisture  
Dew Point 47 °F    
Average Humidity 85    
Maximum Humidity 94    
Minimum Humidity 65    
Precipitation  
Precipitation 0.08 in - - ()
Sea Level Pressure  
Sea Level Pressure 29.85 in    
Wind  
Wind Speed 18 mph ()    
Max Wind Speed 25 mph    
Max Gust Speed 38 mph    
Visibility 9.0 miles    
Events      
Averages and records for this station are not official NWS values.
T = Trace of Precipitation, MM = Missing Value Source: Averaged Metar Reports

Daily Weather History Graph

Daily Weather History Graph

Search for Another Location

Airport or City:

Trip Planner

Search our weather history database for the weather conditions in past years. The results will help you decide how hot, cold, wet, or windy it might be!

Date:

Astronomy

Dec. 21, 2013 Rise Set
Actual Time 8:08 AM GMT 3:56 PM GMT
Civil Twilight 7:27 AM GMT 4:37 PM GMT
Nautical Twilight 6:44 AM GMT 5:20 PM GMT
Astronomical Twilight 6:03 AM GMT 6:01 PM GMT
Moon 8:25 PM GMT (12/21) 10:02 AM GMT (12/21)
Length of Visible Light 9h 09m
Length of Day
7h 48m
Waning Gibbous, 86% of the Moon is Illuminated
Dec 21
Waning Gibbous
Dec 25
Last Quarter
Jan 1
New
Jan 8
First Quarter
Jan 16
Full

Hourly Weather History & Observations

Time (GMT) Temp. Windchill Dew Point Humidity Pressure Visibility Wind Dir Wind Speed Gust Speed Precip Events Conditions
12:00 AM 49 °F - 47 °F 90% 30.02 in 2 mi South 23.0 mph - -   Mostly Cloudy
12:50 AM 50.0 °F - 46.4 °F 87% 30.01 in 6.2 mi South 19.6 mph 31.1 mph N/A   Mostly Cloudy
1:00 AM 50 °F - 47 °F 86% 30.01 in 6 mi South 19.6 mph - -   Partly Cloudy
1:50 AM 50.0 °F - 48.2 °F 94% 29.98 in 3.1 mi South 21.9 mph - N/A   Mostly Cloudy
2:00 AM 50 °F - 48 °F 90% 29.99 in 3 mi South 21.9 mph - -   Mostly Cloudy
2:50 AM 50.0 °F - 48.2 °F 94% 29.98 in 6.2 mi South 17.3 mph - N/A   Mostly Cloudy
3:00 AM 51 °F - 48 °F 87% 29.99 in 7 mi South 17.3 mph - -   Mostly Cloudy
3:50 AM 50.0 °F - 48.2 °F 94% 29.98 in 6.2 mi South 16.1 mph - N/A   Overcast
4:00 AM 51 °F - 49 °F 89% 29.98 in 7 mi South 16.1 mph - -   Overcast
4:50 AM 51.8 °F - 48.2 °F 88% 29.95 in 6.2 mi South 15.0 mph - N/A   Mostly Cloudy
5:00 AM 51 °F - 49 °F 90% 29.97 in 19 mi South 15.0 mph - -   Mostly Cloudy
5:50 AM 51.8 °F - 50.0 °F 94% 29.95 in 6.2 mi South 17.3 mph 29.9 mph N/A   Mostly Cloudy
6:00 AM 51 °F - 49 °F 91% 29.95 in 7 mi South 17.3 mph - -   Mostly Cloudy
6:50 AM 51.8 °F - 50.0 °F 94% 29.92 in 3.1 mi South 18.4 mph - N/A   Mostly Cloudy
7:00 AM 51 °F - 49 °F 92% 29.94 in 3 mi South 18.4 mph - -   Mostly Cloudy
7:50 AM 51.8 °F - 48.2 °F 88% 29.92 in 6.2 mi South 19.6 mph - N/A   Mostly Cloudy
8:00 AM 51 °F - 49 °F 90% 29.93 in 10 mi South 19.6 mph - -   Partly Cloudy
8:50 AM 51.8 °F - 50.0 °F 94% 29.92 in 5.6 mi South 18.4 mph - N/A   Mostly Cloudy
9:00 AM 52 °F - 50 °F 89% 29.92 in 6 mi South 18.4 mph - -   Mostly Cloudy
9:50 AM 51.8 °F - 50.0 °F 94% 29.89 in 6.2 mi South 20.7 mph 33.4 mph N/A   Mostly Cloudy
10:00 AM 53 °F - 50 °F 85% 29.91 in 19 mi South 20.7 mph - -   Mostly Cloudy
10:50 AM 51.8 °F - 50.0 °F 94% 29.89 in 5.0 mi South 18.4 mph 29.9 mph N/A   Mostly Cloudy
11:00 AM 52 °F - 50 °F 91% 29.91 in 5 mi South 18.4 mph - -   Mostly Cloudy
11:50 AM 51.8 °F - 50.0 °F 94% 29.86 in 6.2 mi South 18.4 mph - N/A   Mostly Cloudy
12:00 PM 52 °F - 49 °F 88% 29.87 in 19 mi South 18.4 mph - -   Partly Cloudy
12:50 PM 53.6 °F - 50.0 °F 88% 29.83 in 6.2 mi South 19.6 mph 31.1 mph N/A   Mostly Cloudy
1:00 PM 53 °F - 50 °F 85% 29.83 in 19 mi South 19.6 mph - -   Mostly Cloudy
1:50 PM 53.6 °F - 48.2 °F 82% 29.77 in 6.2 mi South 17.3 mph - N/A   Mostly Cloudy
2:00 PM 54 °F - 49 °F 77% 29.80 in 19 mi South 17.3 mph - -   Mostly Cloudy
2:50 PM 53.6 °F - 50.0 °F 88% 29.74 in 6.2 mi South 21.9 mph - N/A   Mostly Cloudy
3:00 PM 53 °F - 50 °F 85% 29.76 in 12 mi South 21.9 mph - -   Mostly Cloudy
3:50 PM 53.6 °F - 50.0 °F 88% 29.71 in 6.2 mi South 21.9 mph - N/A   Mostly Cloudy
4:00 PM 53 °F - 50 °F 86% 29.73 in 7 mi South 21.9 mph - -   Mostly Cloudy
4:50 PM 53.6 °F - 50.0 °F 88% 29.68 in 6.2 mi South 19.6 mph - N/A   Mostly Cloudy
5:00 PM 53 °F - 50 °F 86% 29.70 in 18 mi South 19.6 mph - -   Scattered Clouds
5:50 PM 53.6 °F - 46.4 °F 77% 29.68 in 6.2 mi South 24.2 mph 38.0 mph N/A   Partly Cloudy
6:00 PM 54 °F - 46 °F 65% 29.68 in 19 mi South 24.2 mph - -   Scattered Clouds
6:50 PM 53.6 °F - 44.6 °F 72% 29.68 in 6.2 mi South 25.3 mph 38.0 mph N/A   Partly Cloudy
7:00 PM 53 °F - 45 °F 67% 29.68 in 12 mi South 25.3 mph - -   Scattered Clouds
7:50 PM 51.8 °F - 46.4 °F 82% 29.71 in 6.2 mi SW 18.4 mph - N/A   Scattered Clouds
8:00 PM 51 °F - 46 °F 78% 29.74 in 17 mi SW 18.4 mph - -   Partly Cloudy
8:50 PM 48.2 °F - 41.0 °F 76% 29.74 in 6.2 mi SSW 15.0 mph - N/A   Unknown
9:00 PM 48 °F - 41 °F 70% 29.76 in 19 mi SSW 15.0 mph - -  
9:50 PM 48.2 °F - 41.0 °F 76% 29.77 in 6.2 mi SSW 15.0 mph - N/A   Partly Cloudy
10:00 PM 47 °F - 41 °F 71% 29.79 in 17 mi SSW 15.0 mph - -   Scattered Clouds
10:50 PM 46.4 °F 39.8 °F 39.2 °F 76% 29.80 in 6.2 mi South 16.1 mph - N/A   Partly Cloudy
11:00 PM 46 °F - 39 °F 69% 29.81 in 19 mi South 16.1 mph - -   Scattered Clouds
11:50 PM 46.4 °F 39.8 °F 39.2 °F 76% 29.80 in 6.2 mi South 16.1 mph - N/A   Unknown